カタログに戻る

STARLINK-2378

運用中通信VLEO
NORAD 47916·PAYLOAD·🇺🇸 United States

打ち上げ Mar 14, 2021 から Cape Canaveral Space Force Station

Loading…

次のパス (今後24時間)

TLE

最新Source: CelesTrak SupGP

元期: Sep 15, 2026, 01:32 UTC

1 47916C 21021BJ  26258.06437500  .00040559  00000+0  12558-2 0  2584
2 47916  53.1569  94.0283 0000486 179.5408   8.8529 15.32890125    15

AllMySatでSTARLINK-2378をリアルタイム追跡

Download on the App Store